Wind_Speed
13 5 13 11 7 6 4 5 8 11 4 4 17 19 20 34 33 33 35 37 39 46 44 39 36 34 39 36 34 31 34 35 29 26 23 25 31 29 26 22 19 15 16 13
4 13 8 8 7 10 9 13 17 9 10 8 10 20 19 25 32 42 39 38 40 41 44 46 43 39 42 40 36 33 32 33 31 28 27 23 16 25 24 19 17 17 18 14
12 8 12 10 11 11 15 16 15 9 7 1 8 3 4 10 22 29 37 43 44 46 47 49 49 48 45 44 42 39 35 36 34 30 26 25 18 18 21 22 20 20 19 14
10 12 13 18 14 14 13 15 14 8 4 7 6 4 6 10 9 14 30 36 40 43 48 51 52 54 51 49 45 42 39 38 38 32 29 31 28 23 25 24 18 18 16 17
10 19 19 16 18 18 14 12 10 10 6 4 4 4 7 9 11 11 22 39 41 47 50 52 55 57 56 52 48 45 42 40 39 36 35 33 31 23 25 20 16 19 19 20
18 14 15 16 13 17 14 7 8 3 5 8 14 13 6 11 12 17 22 33 45 45 50 55 57 56 57 55 52 49 46 44 41 39 35 35 34 28 29 25 20 20 17 21
10 18 6 12 10 11 11 7 5 7 8 10 10 6 12 18 19 24 23 34 44 48 48 51 49 51 56 58 56 53 50 48 45 42 37 33 33 31 29 29 24 22 22 25
12 9 19 11 17 15 9 16 9 10 4 5 6 9 13 15 22 39 44 41 40 45 50 52 58 60 61 60 59 57 54 51 48 45 40 34 31 34 31 29 30 27 26 23
8 13 4 15 13 17 10 10 12 6 3 2 4 7 6 10 12 25 34 36 39 48 49 56 61 62 62 62 62 60 57 53 50 47 42 37 33 35 36 32 29 29 25 22
8 4 12 18 18 17 18 7 4 2 15 17 5 6 8 8 14 14 22 33 43 45 51 53 53 61 62 61 62 60 58 56 51 48 44 38 35 35 39 35 36 33 28 25
19 9 10 5 15 17 11 11 3 6 8 12 7 16 9 10 10 14 22 41 45 45 49 52 57 59 62 61 60 61 59 57 55 50 46 41 36 36 38 41 38 38 35 31
13 15 16 25 12 12 20 15 11 9 7 6 16 25 3 10 9 10 24 41 47 38 44 47 53 52 54 56 57 60 59 58 56 51 47 44 39 37 38 41 43 41 41 39
8 6 10 9 14 16 8 13 19 5 5 18 9 8 7 5 6 16 14 19 29 31 40 32 38 44 53 57 59 59 59 59 56 54 50 46 44 41 39 41 42 45 43 43
13 6 12 19 13 6 8 17 12 19 15 11 22 5 6 1 7 9 25 35 38 44 30 30 36 41 52 57 60 61 59 59 57 56 53 49 47 43 41 41 43 44 44 46
6 6 4 13 15 21 14 12 21 22 24 22 16 13 10 9 9 9 29 35 30 42 34 31 38 49 52 57 58 61 59 59 59 58 55 53 48 43 43 44 44 44 45 45
6 5 7 7 10 22 24 20 19 23 23 19 6 7 10 14 20 12 21 29 33 37 35 33 43 48 58 59 59 63 61 60 59 60 57 52 50 49 48 47 45 44 44 44
4 4 8 6 6 18 20 31 17 11 16 17 15 10 9 8 8 11 18 24 27 38 31 19 31 50 56 63 65 63 60 60 59 60 58 56 52 52 51 48 47 46 45 43
9 8 4 6 7 14 24 18 20 10 7 10 12 10 12 13 25 19 15 16 31 24 20 15 17 46 59 63 62 60 59 59 59 60 59 57 54 52 51 50 48 47 45 43
19 12 4 3 3 7 4 8 13 9 11 8 9 11 12 24 9 4 17 17 19 14 14 13 17 22 41 48 50 56 56 57 58 58 58 59 56 52 50 50 49 46 43 40
22 18 10 6 4 6 6 5 13 7 4 5 10 9 9 10 6 4 8 9 14 21 21 21 15 27 28 37 47 49 48 56 58 58 57 57 58 55 50 46 46 45 39 33
3 3 8 12 10 9 8 6 6 8 6 1 5 9 9 6 8 17 10 7 5 6 16 27 26 30 33 26 40 46 50 53 51 55 52 54 55 58 52 48 45 43 38 32
5 5 3 4 5 8 27 15 7 6 8 17 15 18 22 18 14 13 12 9 3 3 6 7 14 26 29 30 31 36 47 42 41 50 54 53 54 57 53 50 46 42 40 34
7 5 5 5 5 11 21 10 11 25 23 11 16 21 26 26 23 23 23 19 16 10 7 8 12 15 25 28 32 39 39 41 46 51 51 51 50 49 49 49 48 44 38 37
10 7 3 4 1 9 25 14 22 29 27 27 29 27 30 32 27 26 22 17 14 12 10 12 16 19 21 27 33 38 40 45 51 51 50 48 48 44 45 46 45 43 39 36
2 4 6 2 10 16 19 22 11 28 27 29 31 31 29 31 30 27 24 19 14 9 6 5 8 13 19 23 28 35 42 42 42 48 48 46 44 43 44 44 44 37 31 39
3 2 5 1 5 5 8 17 28 36 29 23 28 32 29 29 30 27 25 20 15 11 8 5 3 1 3 8 15 19 28 35 39 45 44 43 46 43 40 40 28 21 18 10
Wind_Direction
213 183 225 222 206 225 229 246 253 270 335 87 161 165 172 176 176 179 183 185 190 190 198 204 210 207 197 199 205 207 206 204 202 207 211 214 224 221 214 220 226 229 246 251
235 230 210 199 214 225 232 249 262 307 279 167 200 178 174 175 184 183 185 189 193 195 198 203 210 210 202 206 208 210 212 206 206 216 219 218 221 214 218 221 230 228 236 248
208 222 199 201 224 225 232 232 250 235 312 266 130 43 169 195 192 192 191 190 193 194 197 204 207 208 209 208 210 213 216 215 217 219 220 219 216 215 220 227 231 228 239 232
231 228 206 210 221 218 238 233 242 249 276 244 163 222 214 223 214 192 197 196 196 199 201 201 205 209 211 213 214 215 217 218 221 224 218 216 217 218 205 212 216 224 226 229
218 194 216 212 214 216 242 239 235 227 233 217 264 128 245 160 222 211 196 198 198 200 202 203 206 211 213 214 215 217 217 217 220 220 222 221 225 230 219 216 214 214 226 230
220 235 201 216 219 219 226 249 253 211 201 228 227 214 239 211 211 222 204 202 201 201 204 207 210 212 214 215 215 216 216 216 218 219 224 228 231 230 223 211 214 216 222 229
222 231 234 198 202 221 197 171 252 248 230 234 208 226 227 208 211 204 206 205 203 202 202 206 207 206 211 214 215 217 216 216 216 220 224 230 233 229 219 210 214 219 224 225
205 243 214 214 207 213 196 201 203 213 213 251 214 222 232 228 213 200 209 208 204 202 203 205 209 213 213 216 216 217 217 216 216 218 223 227 231 224 219 213 220 225 229 232
182 235 265 209 218 193 219 205 202 197 207 268 221 250 295 243 207 208 207 198 202 203 203 205 212 215 216 216 219 218 217 218 219 219 221 224 227 223 216 210 216 223 227 232
219 279 219 235 216 241 209 179 188 241 222 240 240 220 233 203 221 198 203 200 201 201 203 208 208 212 217 219 221 220 222 218 220 221 221 221 226 225 219 215 218 225 227 228
212 195 240 210 225 218 209 209 230 173 196 225 241 251 192 235 219 206 199 197 204 196 199 205 212 216 219 219 218 221 221 220 219 220 220 219 223 225 221 219 219 224 227 230
278 216 230 230 221 205 222 214 184 215 234 235 227 244 133 207 230 206 212 203 206 197 198 207 213 211 209 212 213 219 221 223 222 220 219 220 221 225 223 225 222 222 227 231
324 231 232 255 251 243 199 223 217 134 133 222 210 244 187 195 208 223 192 192 195 197 211 213 212 204 208 213 215 218 221 223 225 221 219 219 220 223 225 226 227 225 224 230
346 243 244 237 221 184 197 222 210 210 215 216 233 202 281 151 206 221 202 209 199 205 226 235 223 213 211 218 217 220 223 225 225 225 220 220 221 222 225 227 228 230 229 230
21 282 282 290 261 207 200 195 211 214 219 211 228 208 231 235 206 226 232 215 209 196 204 209 238 215 217 216 218 221 222 222 224 225 224 222 222 225 227 228 229 232 232 233
333 282 331 275 255 230 217 222 228 216 216 228 172 208 186 232 209 225 222 226 198 206 211 206 220 223 212 216 219 222 222 224 223 225 227 226 225 225 228 230 231 232 235 235
268 311 354 278 311 218 233 215 204 208 216 211 205 197 188 191 197 201 231 225 220 209 208 217 224 208 209 214 221 218 221 222 224 225 226 227 227 227 229 230 232 235 236 237
241 270 249 274 307 215 220 212 218 203 218 216 226 213 192 204 216 219 186 209 227 222 244 192 202 206 209 215 217 220 220 220 224 225 224 227 227 229 230 231 233 234 237 238
219 231 262 261 264 270 156 186 187 171 241 204 205 223 208 204 136 37 232 209 223 209 200 193 200 218 213 216 222 219 218 221 223 225 226 226 228 228 230 231 231 232 234 236
221 213 200 258 314 261 212 226 126 120 207 277 173 179 153 130 132 224 136 167 200 219 220 230 232 215 212 228 218 220 224 223 224 228 232 230 229 229 229 231 231 231 231 234
50 45 198 253 247 273 328 321 111 123 223 111 126 138 136 118 153 155 146 146 161 183 211 225 225 216 208 218 221 222 221 221 231 234 232 231 231 230 231 231 230 230 228 226
126 148 147 281 281 255 353 320 156 176 141 124 109 109 100 101 105 112 124 133 141 194 222 241 244 240 230 218 220 222 223 226 230 232 229 229 228 227 227 228 228 226 226 223
158 177 172 148 239 309 296 327 47 109 96 82 105 117 115 110 106 105 108 119 127 149 193 229 249 244 241 238 233 231 230 228 228 227 227 226 227 224 227 226 223 221 222 218
174 152 120 60 276 2 353 334 58 85 95 115 121 118 118 116 115 112 116 119 124 131 159 193 214 226 236 243 247 242 239 230 223 220 219 222 221 215 217 219 221 220 217 215
200 129 105 297 308 344 345 5 72 83 89 97 107 111 110 113 105 108 106 111 119 131 147 190 210 220 225 227 237 240 236 228 210 210 204 202 207 205 204 205 203 218 215 213
7 114 131 165 328 269 320 3 80 77 68 59 81 94 94 100 102 103 99 96 99 99 87 63 63 9 289 235 218 203 219 216 209 202 195 192 191 195 204 190 192 210 155 172
Height
1459 1470 1471 1471 1471 1471 1474 1479 1482 1463 1456 1470 1465 1469 1474 1479 1486 1489 1492 1496 1500 1500 1507 1513 1516 1521 1526 1528 1531 1534 1537 1542 1546 1549 1551 1554 1556 1558 1561 1562 1564 1565 1567 1568
1461 1464 1460 1462 1465 1468 1471 1476 1474 1465 1457 1465 1471 1465 1465 1472 1473 1474 1482 1489 1494 1497 1502 1506 1511 1516 1519 1522 1525 1528 1532 1537 1541 1545 1548 1551 1553 1554 1557 1559 1561 1562 1564 1565
1457 1453 1453 1458 1462 1468 1466 1472 1467 1474 1461 1456 1466 1477 1474 1473 1475 1477 1478 1480 1485 1488 1493 1499 1504 1507 1512 1515 1518 1522 1526 1531 1536 1541 1545 1548 1550 1552 1553 1555 1557 1558 1561 1562
1449 1445 1449 1453 1457 1461 1476 1453 1459 1466 1474 1483 1457 1502 1478 1472 1473 1473 1476 1478 1479 1483 1487 1489 1494 1499 1503 1506 1512 1517 1521 1526 1531 1535 1539 1541 1544 1546 1548 1550 1553 1556 1558 1560
1441 1437 1442 1448 1446 1448 1453 1453 1458 1462 1471 1472 1469 1490 1477 1464 1472 1470 1467 1468 1469 1473 1478 1481 1484 1488 1492 1500 1505 1510 1515 1520 1524 1529 1532 1536 1539 1542 1546 1548 1549 1553 1555 1556
1428 1428 1431 1433 1437 1440 1444 1453 1456 1459 1472 1494 1468 1471 1480 1455 1453 1453 1456 1457 1459 1465 1470 1474 1475 1481 1487 1493 1498 1503 1508 1513 1518 1522 1526 1529 1532 1536 1539 1543 1545 1548 1550 1552
1426 1425 1423 1426 1439 1435 1442 1461 1491 1489 1486 1483 1463 1472 1450 1433 1432 1434 1441 1444 1449 1455 1461 1466 1472 1477 1480 1484 1489 1495 1501 1506 1511 1515 1519 1523 1526 1531 1534 1538 1541 1544 1546 1547
1438 1443 1419 1412 1422 1433 1441 1445 1471 1496 1493 1480 1458 1469 1439 1421 1419 1420 1425 1431 1441 1447 1451 1455 1459 1464 1468 1473 1479 1485 1492 1499 1504 1509 1513 1518 1522 1525 1529 1532 1536 1539 1541 1544
1436 1428 1405 1406 1409 1416 1430 1442 1435 1464 1460 1474 1456 1440 1421 1414 1415 1414 1418 1427 1432 1437 1442 1442 1447 1452 1457 1464 1468 1474 1482 1490 1496 1501 1507 1511 1516 1519 1523 1527 1531 1534 1537 1540
1406 1427 1401 1399 1402 1403 1410 1419 1445 1458 1469 1475 1457 1444 1433 1419 1414 1413 1415 1418 1419 1425 1431 1434 1440 1442 1448 1452 1458 1467 1473 1480 1487 1494 1499 1505 1509 1513 1518 1523 1525 1528 1532 1536
1394 1411 1405 1398 1400 1407 1410 1418 1421 1425 1440 1452 1470 1427 1406 1408 1406 1406 1404 1405 1407 1410 1418 1426 1430 1434 1437 1444 1451 1458 1466 1473 1480 1487 1493 1498 1502 1506 1512 1516 1519 1522 1527 1530
1395 1394 1401 1392 1381 1380 1388 1398 1412 1425 1444 1440 1425 1398 1386 1393 1395 1396 1397 1392 1395 1406 1412 1418 1423 1428 1434 1440 1445 1449 1457 1464 1471 1479 1486 1490 1496 1500 1504 1508 1512 1516 1519 1522
1406 1389 1402 1395 1386 1378 1390 1386 1385 1409 1417 1415 1433 1409 1382 1389 1391 1389 1392 1396 1399 1403 1410 1418 1423 1424 1427 1431 1437 1442 1447 1454 1462 1471 1477 1483 1487 1492 1495 1499 1504 1508 1513 1515
1404 1395 1386 1378 1375 1375 1387 1378 1381 1386 1400 1407 1391 1401 1388 1388 1389 1389 1386 1388 1389 1395 1403 1409 1417 1421 1421 1423 1428 1434 1439 1446 1453 1460 1467 1473 1477 1482 1486 1491 1495 1499 1504 1508
1417 1411 1384 1375 1363 1355 1360 1364 1368 1375 1372 1383 1378 1393 1390 1384 1383 1382 1382 1379 1385 1387 1391 1393 1404 1409 1413 1416 1421 1428 1434 1439 1444 1451 1456 1460 1468 1474 1479 1483 1487 1491 1496 1500
1420 1414 1397 1377 1356 1350 1354 1355 1352 1353 1360 1365 1374 1380 1368 1367 1370 1373 1376 1379 1377 1381 1382 1386 1391 1395 1399 1406 1411 1418 1424 1429 1436 1444 1446 1452 1460 1465 1468 1474 1479 1483 1487 1492
1426 1416 1408 1392 1358 1348 1363 1330 1343 1349 1348 1353 1371 1366 1362 1364 1364 1365 1367 1370 1372 1372 1376 1379 1383 1387 1391 1393 1400 1407 1413 1420 1426 1433 1439 1444 1449 1455 1460 1465 1470 1474 1478 1484
1413 1414 1412 1396 1377 1373 1309 1316 1325 1342 1342 1342 1348 1349 1350 1352 1354 1358 1360 1363 1367 1371 1374 1370 1374 1381 1384 1389 1394 1399 1405 1411 1417 1423 1431 1436 1441 1445 1451 1457 1461 1465 1469 1474
1395 1401 1404 1398 1385 1341 1318 1319 1323 1339 1344 1336 1340 1340 1341 1342 1352 1356 1356 1358 1362 1366 1368 1369 1371 1378 1384 1387 1390 1396 1401 1406 1412 1415 1421 1426 1431 1436 1441 1445 1450 1456 1461 1467
1371 1377 1389 1385 1388 1368 1323 1310 1305 1322 1355 1328 1328 1333 1337 1342 1364 1359 1354 1355 1356 1359 1362 1367 1370 1372 1377 1385 1387 1390 1394 1399 1403 1408 1410 1415 1422 1427 1431 1437 1443 1447 1453 1459
1373 1380 1387 1384 1383 1355 1325 1309 1303 1346 1353 1324 1324 1325 1330 1338 1341 1346 1349 1352 1353 1355 1357 1362 1365 1368 1370 1376 1381 1384 1388 1389 1394 1399 1401 1406 1411 1417 1424 1430 1436 1441 1447 1452
1374 1383 1385 1377 1373 1357 1329 1314 1320 1318 1322 1322 1327 1329 1331 1336 1340 1345 1348 1350 1352 1354 1356 1359 1362 1364 1369 1371 1373 1376 1380 1384 1387 1391 1396 1399 1401 1406 1414 1421 1427 1434 1440 1446
1371 1368 1369 1375 1370 1355 1346 1337 1322 1312 1319 1324 1328 1332 1333 1336 1340 1343 1346 1348 1350 1354 1356 1358 1360 1362 1363 1365 1368 1368 1369 1374 1378 1382 1386 1389 1394 1397 1403 1411 1416 1423 1433 1438
1354 1355 1362 1364 1356 1358 1352 1343 1331 1321 1324 1324 1327 1334 1337 1338 1343 1344 1346 1348 1350 1353 1355 1356 1357 1358 1359 1359 1360 1361 1362 1364 1365 1370 1373 1380 1386 1389 1394 1401 1407 1414 1421 1428
1348 1345 1358 1364 1357 1355 1355 1348 1342 1332 1333 1333 1330 1334 1340 1341 1344 1347 1349 1351 1352 1353 1355 1357 1356 1356 1355 1354 1354 1354 1355 1357 1362 1363 1362 1369 1381 1386 1389 1393 1398 1407 1412 1411
1351 1351 1355 1363 1368 1369 1364 1357 1346 1337 1341 1345 1343 1340 1345 1346 1345 1348 1351 1354 1356 1357 1357 1358 1359 1359 1359 1358 1356 1354 1355 1349 1351 1357 1366 1364 1367 1373 1387 1386 1395 1406 1403 1403